[Date Prev][Date Next][Thread Prev][Thread Next] - [Date Index][Thread Index][Author Index]
Updated STS-93 Nominal Orbital Information
- Subject: [sarex] Updated STS-93 Nominal Orbital Information
- From: "Ken Ernandes" <n2wwd@xxxxxxxxxxxxxx>
- Date: Thu, 22 Jul 1999 06:32:27 -0400
Below is the nominal State Vector and Keplerian Elements for
STS-93. The vector data comes from NASA; the Keplerian Elements
were computed from the vector.
This file may be read by VEC2TLE version 9648 to update your
Keplerian Elements text file.
Vector format = 10117
Satellite Name: STS-93 OMS-2
Catalog Number: 99993
Epoch MET: 0.03008908600
0/00:43:19.697 MET
EFG E: 9596533.77336489 ft
F: 17258525.1300330 ft
G: -9399732.6040707 ft
Edot: -21545.358129498 ft/s
Fdot: 9134.41196213600 ft/s
Gdot: -5217.4891506060 ft/s
ndot/2 (drag): 0.00018250050 rev/day^2
nddt/6: 1.39345E-09 rev/day^3
Bstar: 4.42562E-05 1/Earth Radii
Elset #: 1
Rev @ Epoch: 1.67900900186
Launch scheduled: 1999-JUL-23 0424 UTC
Note that 99993 is a temporary Catalog Number. A permanent Catalog
Number and International Designator will be assigned when STS-93 is
launched.
The following Keplerian elements were computed by VEC2TLE from this
vector, using a 0.5 drag multiplier:
STS-93 OMS-2
1 99993U 99204.21342242 .00016434 11313-8 44141-4 0 32
2 99993 28.4662 196.7875 0010669 264.1148 340.3528 15.93034379 10
Satellite: STS-93 OMS-2
Catalog number: 99993
Epoch time: 99204.21342242
Element set: 3
Inclination: 28.4662 deg
RA of node: 196.7875 deg
Eccentricity: 0.0010669
Arg of perigee: 264.1148 deg
Mean anomaly: 340.3528 deg
Mean motion: 15.93034379 rev/day
Decay rate: 1.64337e-04 rev/day^2
Epoch rev: 1
Checksum: 322
VEC2TLE may be downloaded from <http://www.mindspring.com/~n2wwd>.
Ken Ernandes
n2wwd@amsat.org
http://www.mindspring.com/~n2wwd
----
Via the sarex mailing list at AMSAT.ORG courtesy of AMSAT-NA.
To unsubscribe, send "unsubscribe sarex" to Majordomo@amsat.org
AMSAT Home